Location: Boulin
(43.2500°N, 0.1333°E)
Time: 05:15:53
(UTC+00:00)

Cosmos 1933 - Pass Details

Date: 18 March 2026
Orbit: 507 x 515 km, 82.5° (Epoch: 15 April)

Event Time Altitude Azimuth Distance (km) Brightness Sun altitude
Rises 05:35:32 0° 216° (SW) 2,620 6.4 -6.5°
Reaches altitude 10° 05:37:57 10° 230° (SW) 1,738 5.4 -6.0°
Maximum altitude 05:41:06 24° 286° (WNW) 1,090 4.3 -5.5°
Drops below altitude 10° 05:44:17 10° 342° (NNW) 1,747 5.7 -4.9°
Sets 05:46:43 0° 356° (N) 2,637 6.8 -4.4°
